Address 0x562937835cdd5c92f54b94df658fd3b50a68ecd5 11

Txn Hash Method
Block
From
To
Value [Txn Fee]
0xd932b7bec708de31f325dd82f2528acb26c9d1babfdf9bcc221337e704915997User Deposit7308282022-10-18 13:36:2541 days 1 hr ago0x562937835cdd5c92f54b94df658fd3b50a68ecd5OUT 0xa0c5ba7d9eccbe59000e8e67654ca5d867c6b4010 ETH0.00001161
0xbde67e072a7d75519aa6824d9c6903e4ea07f2c7bf742736fc11af28dceef11eTransfer7307752022-10-18 13:31:0641 days 1 hr ago0x562937835cdd5c92f54b94df658fd3b50a68ecd5OUT0x2ee331840018465bd7fe74aa4e442b9ea407fbbe0.05 ETH0.0000715
0xd7d1ad3e3e6de81c76970ec6b0af60594949917e2570328b58901edafd4a9d4eTransfer7307502022-10-18 13:29:1641 days 1 hr ago0x562937835cdd5c92f54b94df658fd3b50a68ecd5OUT 0xbb7c4363092fd156a3ee45a7f0f702e14cf237c30 ETH0.00000713
0x9a875d340ea59c12ff696126ad3216c30dde2f59257d03d8d7c0fb81433f2cdaTransfer6734192022-10-15 0:48:2444 days 14 hrs ago0x562937835cdd5c92f54b94df658fd3b50a68ecd5OUT0xbae1b2c5ecd83c00bad64d45492750b978214a610.05 ETH0.0000336
0x1addd0c8561084092ad4e52e0205340f608b30035bf06433e76d3b55b780acfeTransfer6028232022-10-11 22:07:4247 days 17 hrs ago0x562937835cdd5c92f54b94df658fd3b50a68ecd5OUT0x2ee331840018465bd7fe74aa4e442b9ea407fbbe0.1 ETH0.0000336
0xafebb535ef89674fe399e963b21e06810b922e6e393145b0c8324a1c7c9afe89Transfer6028202022-10-11 22:07:0447 days 17 hrs ago0x562937835cdd5c92f54b94df658fd3b50a68ecd5OUT 0xb28aa1e5074ae0222cf764e2934182775ee7ab420 ETH0.00000526
0x14ea5ace6268f21c5c18993d36cefe4282fdd9afc1a40bf79dc0fd009b5683d6Transfer6028082022-10-11 22:06:0647 days 17 hrs ago0x562937835cdd5c92f54b94df658fd3b50a68ecd5OUT 0xbb7c4363092fd156a3ee45a7f0f702e14cf237c30 ETH0.00000526
0x5ea30aa2c747288a691983385c1c052226ee9690fd5b9661f99ef49e1617da20Transfer6027992022-10-11 22:05:0547 days 17 hrs ago0x562937835cdd5c92f54b94df658fd3b50a68ecd5OUT 0x01e65ad8f4824037ed8b3111a6c232d1b8458bea0 ETH0.00000526
0x9ef8b2cf631d49861bfba27603e8db4b1b612ad4a91bddf665effa4bdbc8be4fTransfer6027872022-10-11 22:04:1547 days 17 hrs ago0x562937835cdd5c92f54b94df658fd3b50a68ecd5OUT 0x1ffc5c93e3037aa387d3a988e9acf2cd11c8b7820 ETH0.00000526
0xce4a3632a90443da55f877c4544a26dfa10311bb4c7e04a3e7a9df6827e2278eApprove5967152022-10-11 17:14:2847 days 22 hrs ago0x562937835cdd5c92f54b94df658fd3b50a68ecd5OUT 0xb28aa1e5074ae0222cf764e2934182775ee7ab420 ETH0.00004169
0xcdc848bebf5e7a30787bd33b3442016da97f9183ad33d7c952aa66b07819db74Approve5966932022-10-11 17:13:4947 days 22 hrs ago0x562937835cdd5c92f54b94df658fd3b50a68ecd5OUT 0xbb7c4363092fd156a3ee45a7f0f702e14cf237c30 ETH0.00004169
0xbd7bf89d3c564a6eda0cea3aea1f8f0eb3d1b923ceb3cacca70d8c2a6b457efbApprove5966732022-10-11 17:13:0847 days 22 hrs ago0x562937835cdd5c92f54b94df658fd3b50a68ecd5OUT 0x01e65ad8f4824037ed8b3111a6c232d1b8458bea0 ETH0.00004169
0x90c94c4054a357698d715a0fe25a2a5d3bc524efd2d1b3cbd5ebc9bc675fd2e8User Withdraw5966542022-10-11 17:12:1947 days 22 hrs ago0x562937835cdd5c92f54b94df658fd3b50a68ecd5OUT 0xa0c5ba7d9eccbe59000e8e67654ca5d867c6b4010 ETH0.00004537
0x031cf153ab09c51e2cbb5b376415ac16c2633448b99fbfdb3592ae93c50391b6Set Treasury5966372022-10-11 17:11:5047 days 22 hrs ago0x562937835cdd5c92f54b94df658fd3b50a68ecd5OUT 0xa0c5ba7d9eccbe59000e8e67654ca5d867c6b4010 ETH0.00003475
0xd019bdbee299f3b8d062306a8a40179a34cda2f5f2bcd77d246d70517c078daeUser Deposit5966082022-10-11 17:10:4147 days 22 hrs ago0x562937835cdd5c92f54b94df658fd3b50a68ecd5OUT 0xa0c5ba7d9eccbe59000e8e67654ca5d867c6b4010 ETH0.00004628
0x3ffc5756cad1b85d02072769e716ddc849f0bb8732d09ffcfef5ed3fc9522038User Deposit5965892022-10-11 17:09:5747 days 22 hrs ago0x562937835cdd5c92f54b94df658fd3b50a68ecd5OUT 0xa0c5ba7d9eccbe59000e8e67654ca5d867c6b4010 ETH0.00005312
0x15c9681c1cc5928f05ef77e0cfc3d52b619ff42a4929aaf7f70990613fb7e35eApprove5965322022-10-11 17:08:0947 days 22 hrs ago0x562937835cdd5c92f54b94df658fd3b50a68ecd5OUT 0x1ffc5c93e3037aa387d3a988e9acf2cd11c8b7820 ETH0.00004219
0x5f64dceb1e4f934a30e4b5e8a2604d2f2f77bef5cb015edecb18409a0c719144Add New Token5965002022-10-11 17:06:3247 days 22 hrs ago0x562937835cdd5c92f54b94df658fd3b50a68ecd5OUT 0x270d622149f46ffc72a9fd5a8cf92d1fde5ad5e00 ETH0.00008765
0xb78b513f6ebb2d5443456e6c005299e99fd17cf98e58fd27b0fd0b9c0038dc23Add New Token5964842022-10-11 17:05:5347 days 22 hrs ago0x562937835cdd5c92f54b94df658fd3b50a68ecd5OUT 0x270d622149f46ffc72a9fd5a8cf92d1fde5ad5e00 ETH0.00009209
0x7944a9fa16f0256c8b2e5fafa0461e0be1a0315b399d10ac136fe5f8fbef19d1Add New Token5964632022-10-11 17:05:0847 days 22 hrs ago0x562937835cdd5c92f54b94df658fd3b50a68ecd5OUT 0x270d622149f46ffc72a9fd5a8cf92d1fde5ad5e00 ETH0.00009611
0xf7ae9d7c2699454f583c06c3392484ea5850dcd25a0828c883994f1850ef1fe5Add New Token5964482022-10-11 17:04:2447 days 22 hrs ago0x562937835cdd5c92f54b94df658fd3b50a68ecd5OUT 0x270d622149f46ffc72a9fd5a8cf92d1fde5ad5e00 ETH0.00009718
0x469116809d2d7646e7c09805c3b3747ee61cb2f0fd744e87842f926af0be9150Set Managers5962792022-10-11 16:56:5647 days 22 hrs ago0x562937835cdd5c92f54b94df658fd3b50a68ecd5OUT 0x270d622149f46ffc72a9fd5a8cf92d1fde5ad5e00 ETH0.0000679
0x4ec6ebf88531c4e5aa843b89449139c1e185e70637f4fa99f33ae1d4c4328e3bSet Governance A...5962602022-10-11 16:56:0947 days 22 hrs ago0x562937835cdd5c92f54b94df658fd3b50a68ecd5OUT 0x270d622149f46ffc72a9fd5a8cf92d1fde5ad5e00 ETH0.00003754
0xbbaaade346d00563f728b19dce414df94286cf820ec0d6b01f6a5dd08f0db707Initialize5961862022-10-11 16:52:2947 days 22 hrs ago0x562937835cdd5c92f54b94df658fd3b50a68ecd5OUT 0xb28aa1e5074ae0222cf764e2934182775ee7ab420 ETH0.00010702
0x42412e0f92fc3857e66b9f2c0cdeafc8fca28b06b2fcdb0a335ab931fb5783860x608060405961522022-10-11 16:51:0647 days 22 hrs ago0x562937835cdd5c92f54b94df658fd3b50a68ecd5OUT Contract Creation0 ETH0.00199855
[ Download CSV Export 
Parent Txn Hash Block From To Value
Latest 1 Deposit
L2 Txn Hash L1 Deposit Txn Value Token
0x284716a2f0c05c234e4e9597160076e87c8d9ad010ff2975fd017ef093b323a32022-10-10 10:54:4849 days 4 hrs ago0x5b9bc541e986bd93e1cc7e8c9ae27409dcb5f17d386cff69a924acaa0c439ded0.298005754695475 ETH
[ Download CSV Export 
Loading

Contract Name:
0 ETH

Compiler Version
0

Optimization Enabled:
0 ETH

Other Settings:
-NA-
Block Transaction Gas Used Reward
Age Block Fee Address BC Fee Address Voting Power Jailed Incoming
Block Uncle Number Difficulty Gas Used Reward
Loading